Vorticity
1 3 4 5 7 8 7 9 10 9 11 10 7 7 10 12 12 13 11 9 9 8 8 9 10 10 9 8 5 2 3 2 3 4 3 5 6 6 6 6 5 3 4 4 4 4 4 4 4 4 5 6 5 5 5 6 6 6 6 7 8 8 9 8 8 7 7 6 6 5 4 4 4 5 4 5 6 5 4 4 3 3 5 7 8 5 4 8 4 2 5 4 4 6 8 9 11
3 4 3 4 5 7 5 6 8 6 12 13 10 8 7 9 12 11 7 6 6 6 8 8 8 10 11 12 11 9 9 7 7 6 3 2 2 3 3 4 5 3 3 4 4 3 3 3 3 3 4 5 5 5 5 5 6 6 6 6 7 8 9 9 9 8 8 7 6 5 4 4 4 4 4 5 5 5 4 4 4 3 4 5 7 8 8 8 6 5 5 4 4 4 6 8 8
3 4 4 4 3 4 4 4 6 3 6 10 13 13 6 6 9 8 9 9 6 7 8 7 5 5 3 6 10 11 13 12 11 10 7 4 1 2 2 2 4 4 3 3 4 4 4 3 3 4 3 4 4 5 5 6 6 6 6 7 7 7 8 9 9 9 9 8 7 5 5 4 4 4 4 4 4 4 4 4 4 3 4 3 4 6 8 9 9 8 6 4 4 4 5 6 6
3 3 4 4 4 5 4 3 4 2 4 6 9 14 9 4 5 6 9 9 8 8 7 6 6 4 1 4 6 6 8 9 10 11 11 9 6 4 4 4 5 6 5 4 4 4 4 4 4 4 4 4 4 4 5 6 6 6 6 7 7 7 7 8 8 10 10 10 8 5 5 5 4 4 4 4 4 4 4 4 4 3 3 3 3 3 5 8 9 10 10 7 5 5 5 5 6
6 6 6 5 7 5 3 4 4 3 4 5 4 9 11 6 4 6 6 4 6 6 5 6 7 6 4 5 4 4 5 5 7 9 10 12 12 10 8 6 5 4 5 5 5 4 4 3 4 5 5 5 5 4 4 4 5 6 6 6 7 7 7 7 8 9 10 11 10 6 5 6 4 4 4 4 5 4 4 4 4 4 3 3 3 3 3 6 8 10 11 11 8 6 5 6 6
7 7 6 7 8 6 6 6 3 4 5 5 4 6 9 7 3 4 4 3 3 3 3 4 5 6 5 5 6 6 5 4 4 4 6 9 12 14 14 13 10 7 4 4 5 5 5 4 4 5 6 6 6 6 5 4 4 4 6 6 6 7 8 8 8 9 10 11 12 9 7 6 4 4 4 4 5 5 4 5 5 5 4 4 3 4 3 4 6 8 10 11 11 9 7 7 7
6 6 6 7 8 7 8 6 3 5 6 5 6 6 7 8 5 4 6 5 3 2 1 1 3 4 4 5 5 5 6 7 6 5 4 4 7 9 11 13 15 14 12 9 7 6 5 5 4 3 4 5 6 6 6 5 5 4 4 5 6 6 7 8 8 9 10 10 11 12 9 7 5 4 4 3 4 5 4 4 4 5 5 5 3 3 4 4 3 4 6 8 10 11 10 10 10
7 8 7 7 8 8 8 6 5 5 4 5 6 6 7 8 8 7 6 4 2 3 5 5 5 4 3 3 4 4 4 5 7 8 7 6 5 5 5 6 9 13 15 16 15 12 9 7 6 5 4 4 4 5 6 6 6 5 4 4 4 6 6 7 8 9 10 11 11 12 11 9 6 4 3 3 3 4 5 5 5 4 5 6 6 5 4 4 4 3 4 6 7 9 10 10 11
9 9 9 9 8 7 7 7 7 5 4 5 6 7 9 8 7 6 4 2 3 6 8 7 7 6 5 6 5 5 4 3 4 6 7 7 7 6 6 4 4 5 8 12 16 17 14 11 8 7 5 5 5 4 5 5 5 6 5 4 4 5 6 6 7 7 9 10 11 11 12 10 7 5 4 3 2 2 3 5 6 5 5 5 6 6 5 4 4 3 2 4 5 6 7 8 9
9 10 10 11 10 6 6 7 8 7 4 5 8 9 9 6 5 4 2 3 5 7 8 8 9 9 10 10 8 7 6 4 3 3 4 5 6 7 7 7 6 4 3 4 7 11 13 14 12 10 8 6 6 5 5 5 5 5 5 5 4 4 4 5 5 6 7 9 10 11 12 11 9 7 6 5 3 2 2 3 5 6 6 5 6 7 7 5 4 3 3 3 4 5 5 6 7
12 12 12 12 11 8 5 7 10 10 7 7 9 7 6 5 5 5 5 7 8 8 7 8 8 8 10 12 11 11 11 10 8 6 4 3 3 4 5 7 8 7 6 4 3 4 7 10 12 12 12 10 8 7 7 7 6 5 5 5 5 5 4 4 4 5 5 7 9 10 11 12 10 8 8 7 5 4 3 3 3 4 5 5 5 5 6 6 5 4 4 4 4 5 5 4 5
14 13 13 13 11 10 9 9 11 12 9 6 6 6 6 7 7 8 9 9 8 7 6 6 5 4 6 8 8 8 9 10 11 10 10 9 6 4 4 4 5 7 8 6 4 3 3 5 8 10 11 12 11 10 9 9 9 8 6 6 6 6 5 4 4 4 5 6 8 10 10 11 11 9 8 6 6 7 5 4 4 3 3 4 4 4 5 5 6 5 4 4 4 4 4 4 4
14 14 14 14 12 12 11 8 7 8 8 8 8 9 10 10 9 9 7 6 5 4 3 3 3 4 5 4 4 5 5 6 7 9 10 11 11 9 7 5 3 3 5 7 8 6 4 3 4 6 8 9 10 11 10 9 10 11 9 7 6 6 5 5 4 4 4 5 7 9 10 11 11 11 8 5 6 7 7 6 6 5 4 3 4 4 5 5 7 6 5 4 4 3 4 4 4
13 16 16 14 13 12 9 9 8 7 9 11 11 10 10 8 7 7 5 3 3 3 2 3 2 3 4 4 4 5 5 5 6 6 7 8 9 9 10 9 7 5 3 4 6 8 7 4 3 4 4 6 8 10 10 10 10 11 12 10 8 7 7 6 5 5 4 4 6 8 9 11 11 11 10 6 4 5 5 6 6 6 6 5 5 5 5 6 6 7 7 5 5 5 5 4 4
13 14 13 13 12 10 10 10 10 11 11 10 10 10 9 8 5 3 4 0 -1 3 2 3 5 5 6 6 6 6 6 6 5 5 5 6 6 7 8 9 10 9 7 5 4 6 8 7 5 3 3 3 4 6 8 8 8 10 11 11 11 9 7 7 6 5 4 4 5 6 7 10 11 12 12 10 6 3 3 4 5 5 6 7 8 8 7 7 7 7 7 6 6 6 6 6 6
13 12 11 11 10 10 11 10 11 12 11 9 9 7 4 8 7 0 4 4 -0 6 8 7 9 8 8 7 6 7 8 8 8 7 6 6 6 7 7 7 8 9 9 8 6 5 7 8 8 5 3 2 2 2 4 5 4 6 9 10 10 10 9 7 6 5 4 4 4 5 6 7 9 12 13 12 10 7 5 3 3 3 4 5 6 7 7 7 7 6 7 6 6 6 7 8 8
13 14 11 10 10 10 10 10 10 9 9 9 7 6 2 5 11 7 9 11 6 8 10 9 9 8 7 7 7 6 6 7 8 8 7 6 6 6 6 6 6 7 8 9 8 6 5 6 9 10 6 3 2 1 2 3 2 2 5 8 9 9 8 7 6 5 4 3 4 4 5 5 7 10 12 12 12 11 10 7 5 3 2 2 3 4 4 4 5 5 5 5 5 5 5 6 7
13 13 10 10 11 10 9 7 7 7 7 8 7 7 4 3 8 11 11 13 11 10 12 11 10 11 10 9 10 9 8 8 8 8 9 9 8 7 6 6 6 6 6 7 8 8 6 4 5 9 11 8 5 3 2 2 2 1 1 5 8 9 9 7 6 6 5 3 3 4 5 5 5 7 9 11 12 13 14 12 9 7 4 2 2 1 1 1 1 2 2 3 3 2 2 3 3
13 12 9 9 10 8 8 6 7 8 6 6 6 6 6 6 5 6 7 7 8 9 10 11 12 13 13 14 15 16 17 15 12 10 10 11 10 9 8 7 8 7 7 7 7 8 9 7 5 4 7 10 9 6 3 2 2 2 1 1 4 7 10 10 7 5 5 4 3 3 4 5 4 5 7 7 10 12 14 14 13 12 10 7 4 3 2 1 0 0 1 1 1 0 -0 0 0
12 12 9 7 8 7 6 7 7 5 4 5 7 8 9 8 6 7 7 6 8 6 3 4 6 7 7 8 8 16 25 26 26 24 19 17 16 16 14 11 9 8 8 7 7 8 8 8 7 4 3 6 9 10 8 5 3 2 1 1 1 3 7 11 12 8 5 4 4 3 3 3 4 4 6 6 6 9 12 13 13 14 13 12 9 7 5 4 3 1 0 0 1 1 0 -0 -0
12 11 8 7 6 6 6 8 9 6 4 6 8 10 9 8 9 9 7 4 3 3 3 4 3 3 5 5 2 7 20 28 31 34 34 30 26 26 25 22 18 14 11 9 8 8 8 8 7 5 4 4 6 9 10 9 6 4 3 3 3 2 4 6 11 13 8 5 3 3 3 2 2 4 5 5 4 5 8 10 12 13 14 14 13 11 10 8 6 5 4 2 1 2 2 2 1
11 10 7 8 5 6 6 8 11 7 6 9 9 8 8 9 7 4 3 0 -3 0 5 8 8 10 13 13 9 7 13 21 25 24 29 33 31 29 28 28 25 22 20 17 14 11 9 8 8 7 5 5 5 6 9 10 9 7 6 6 5 2 2 2 6 12 12 8 4 4 4 2 1 3 4 4 3 3 5 7 9 11 12 14 14 14 13 12 12 11 9 8 6 4 4 4 4
9 8 7 7 5 5 5 8 10 4 6 11 7 6 6 4 2 1 1 1 2 6 8 8 9 11 12 12 13 13 13 19 21 14 14 19 23 24 24 24 24 24 24 22 22 20 17 14 11 9 8 5 5 4 6 8 9 9 9 8 6 4 2 -0 3 9 12 11 10 6 4 3 3 3 3 4 3 2 2 5 6 8 10 11 12 13 13 14 14 13 13 13 12 11 9 9 8
7 6 5 5 5 5 6 10 9 0 5 9 3 5 3 -1 -0 1 3 6 8 7 7 8 8 10 12 13 15 19 18 17 17 11 10 12 14 17 18 19 20 21 22 22 22 22 23 22 18 14 12 10 7 5 3 5 7 8 10 9 7 6 5 1 1 5 7 8 9 10 8 5 4 4 4 4 4 4 2 3 4 5 7 8 9 11 12 13 13 13 13 13 13 14 14 14 13
7 5 5 5 5 6 8 12 9 1 5 8 3 3 2 1 3 4 7 9 6 4 7 10 13 16 17 18 21 22 19 16 16 13 12 13 14 14 14 16 18 19 19 20 19 18 20 23 23 19 13 9 8 7 5 3 4 5 8 10 8 7 6 4 3 3 4 4 4 8 10 8 6 5 4 4 5 5 3 3 3 4 5 6 6 8 10 11 12 12 12 12 13 14 16 16 15
6 5 5 5 4 7 9 12 11 3 5 7 4 4 4 5 7 9 10 5 3 6 10 14 15 17 18 20 21 20 16 14 15 15 13 13 13 12 12 12 13 15 18 19 19 19 19 21 26 29 24 15 10 8 7 5 3 4 7 10 9 9 7 5 5 4 3 4 4 4 7 9 9 7 4 4 4 6 5 4 3 4 4 5 4 5 7 8 10 11 11 12 13 13 15 16 15
6 5 6 6 5 7 7 12 13 4 4 7 2 0 1 5 10 8 6 3 4 7 11 14 15 17 22 22 22 19 15 12 12 11 11 10 10 11 12 11 10 10 12 15 18 19 19 19 21 27 32 29 21 13 10 8 5 3 6 10 10 10 10 8 5 4 4 4 5 4 4 6 9 10 7 4 3 4 6 5 4 4 4 4 3 3 5 6 7 8 9 11 12 13 13 13 14
5 4 5 6 6 8 9 14 16 6 4 6 -1 -2 1 5 9 4 2 3 2 5 9 12 14 19 21 21 24 25 22 21 20 16 15 16 16 16 13 12 10 9 9 11 14 17 19 19 18 20 25 30 29 23 14 11 9 4 2 6 9 9 11 13 9 6 4 3 5 6 5 6 7 9 9 7 5 3 4 4 4 5 5 5 3 2 4 6 6 6 7 8 10 11 11 12 13
5 4 4 5 6 7 9 14 16 9 6 8 4 2 5 8 6 1 3 2 -1 3 8 9 9 10 10 6 4 9 12 14 16 16 16 19 21 23 23 21 17 11 8 8 10 13 16 17 18 20 23 27 30 29 23 17 13 10 5 2 6 8 8 12 13 10 6 3 4 6 6 6 7 7 8 9 8 5 3 3 3 4 5 5 4 2 3 6 6 6 6 6 7 7 8 9 11
3 5 6 6 5 4 6 13 16 11 8 9 8 5 6 9 4 -1 -1 -4 -4 3 5 6 4 -3 -2 1 -4 -5 -1 2 6 9 9 10 11 15 21 25 27 23 15 8 6 9 13 14 15 17 20 25 29 29 26 23 18 16 14 8 5 7 8 9 12 12 10 7 5 6 7 7 7 8 8 9 9 8 6 5 4 3 3 5 6 4 3 6 6 6 6 5 5 5 6 7 8
4 6 9 8 8 4 2 11 17 13 8 9 8 5 5 8 4 -1 -2 -6 -7 0 3 5 6 -5 -11 1 10 4 -0 0 2 4 5 5 5 5 6 11 19 26 27 19 10 6 8 11 13 15 16 20 26 29 27 24 20 17 17 15 10 7 8 9 10 12 12 11 9 7 8 8 7 7 8 8 8 8 8 7 6 4 3 3 5 5 5 6 7 7 6 5 5 4 5 4 5
5 6 8 10 13 7 -1 6 17 13 8 8 7 4 4 8 7 1 -3 -4 -4 2 4 3 10 7 -7 -1 14 12 4 2 0 0 3 3 3 5 4 6 9 14 23 26 22 14 8 8 10 12 14 16 20 25 28 27 22 18 15 16 15 12 9 9 8 9 10 12 12 9 7 7 6 5 6 7 8 8 8 8 7 6 5 4 3 4 5 6 6 6 6 5 5 5 4 4 5
4 4 6 8 10 9 -1 -1 10 13 8 7 5 3 2 4 7 4 1 1 2 4 6 3 7 11 1 -2 10 14 7 3 1 -0 1 3 5 8 8 7 8 8 12 18 23 22 16 10 8 9 11 14 16 19 23 26 25 22 19 15 15 15 13 10 8 9 9 8 9 10 8 7 6 4 3 4 7 8 8 8 7 6 6 6 5 4 4 5 5 5 6 6 6 5 5 4 4
3 5 8 9 8 9 3 -2 4 10 8 6 6 6 4 2 1 2 1 2 4 7 7 5 6 10 5 -1 2 10 12 6 3 2 1 4 7 9 9 8 8 8 9 11 16 21 21 17 12 9 9 10 13 17 19 22 22 22 22 20 16 16 15 12 9 8 10 10 10 10 10 9 7 5 3 2 5 8 9 8 8 7 6 6 7 6 3 3 4 5 5 6 7 6 7 7 5
4 6 9 11 10 9 8 8 10 9 6 5 8 7 6 6 3 2 2 1 5 10 8 5 5 7 8 5 -2 -0 9 9 5 5 4 4 5 4 6 8 9 9 9 10 12 15 20 21 18 13 11 10 9 12 17 20 22 20 21 21 18 17 17 16 12 7 7 8 10 11 12 11 9 8 6 4 4 7 9 9 9 7 7 7 7 6 4 2 2 3 3 4 5 5 5 7 8
3 4 6 7 6 6 5 6 9 9 7 5 7 8 6 6 5 5 7 7 10 13 11 6 4 5 9 10 2 -7 -1 5 3 3 2 -1 -1 -0 2 5 7 9 10 11 12 12 15 19 20 16 13 13 12 10 11 14 20 22 21 21 20 19 18 18 17 13 9 7 6 8 10 12 11 10 9 8 6 7 8 9 8 8 7 7 7 7 6 4 2 2 3 2 3 4 3 3 5
3 4 6 6 7 8 4 2 5 7 9 7 8 12 9 5 7 10 13 13 14 14 9 4 3 6 10 9 4 -3 -6 -2 1 2 2 -1 -4 -4 -2 1 2 3 6 8 11 12 14 16 19 19 14 13 15 14 12 10 12 18 22 22 21 22 22 19 18 16 13 12 10 8 8 10 12 11 10 10 9 8 8 8 6 7 7 7 7 7 7 6 5 4 3 3 3 4 5 4 4
4 5 6 7 7 8 6 6 5 5 8 8 8 14 12 5 7 12 16 15 13 13 8 6 7 6 9 10 6 3 -2 -5 -2 1 2 1 0 -2 -5 -3 -0 0 1 4 9 11 13 15 16 19 18 13 12 13 15 14 10 11 15 20 21 22 24 23 21 19 14 12 13 13 10 9 10 10 9 10 10 9 8 8 7 6 7 7 7 7 7 7 6 5 5 5 5 5 6 6 7
4 4 5 6 7 8 7 5 5 4 7 9 9 14 14 5 4 9 13 15 13 13 10 9 10 5 9 17 11 8 4 -3 -4 -1 1 -1 -1 1 -2 -4 -4 -2 -1 -1 3 7 9 11 12 16 19 18 14 10 12 15 16 14 10 11 15 18 22 24 23 22 19 14 11 12 13 12 10 10 9 8 8 9 8 7 7 7 7 7 7 7 7 6 6 6 5 5 6 6 6 6 7
4 4 5 7 7 7 8 6 6 5 6 11 7 13 17 6 6 11 10 15 13 11 13 10 9 8 12 20 15 9 4 -1 -1 -2 1 -0 -3 0 1 0 -2 -3 -1 -3 -5 -0 4 8 10 11 14 17 18 15 10 8 12 17 17 13 11 11 15 20 23 23 23 21 16 12 12 13 12 11 10 10 9 9 10 9 7 8 7 7 7 8 10 8 6 6 6 6 6 6 7 8 7
5 5 5 7 7 8 7 5 7 6 8 9 -0 11 25 9 9 16 9 15 15 11 16 11 10 12 11 15 14 7 -2 -3 5 4 2 3 0 -0 -1 1 3 -0 -0 -0 -3 -4 -2 3 9 12 13 13 16 18 15 10 5 7 14 18 17 13 10 11 17 21 23 24 24 20 15 13 12 9 8 10 12 12 12 11 9 8 8 8 6 5 6 7 6 6 6 6 6 7 8 7 6
5 6 4 5 7 8 6 2 5 8 10 11 -3 2 22 15 10 12 6 14 18 12 12 12 14 11 5 12 14 7 -5 -8 3 6 5 6 3 2 1 -1 2 0 -1 1 0 -1 -3 -3 1 7 12 14 14 17 18 17 12 6 4 9 16 20 17 12 10 12 17 20 24 26 23 18 14 12 9 6 8 11 13 11 10 9 8 8 7 4 4 6 7 7 6 7 6 6 6 5 6
5 6 4 5 7 8 6 1 3 6 7 11 2 -7 8 18 11 1 -1 12 17 11 8 11 14 6 -1 6 9 8 2 -7 -3 2 4 7 6 5 4 -1 -1 0 1 0 -1 1 0 -2 -3 -1 4 9 12 14 18 19 18 14 8 4 6 13 18 20 16 11 11 13 16 21 25 25 20 16 14 11 8 7 10 11 11 11 10 9 9 7 7 7 7 7 7 7 5 5 5 6 7
2 4 4 5 8 8 6 2 2 5 7 10 6 -4 1 15 11 -5 -3 14 16 10 8 9 11 7 2 3 6 10 6 -3 -2 -0 0 3 4 7 6 2 1 2 2 1 1 1 0 1 0 -2 -1 3 6 7 11 17 19 18 14 9 5 5 9 16 21 19 15 13 12 13 17 23 25 21 16 13 12 10 10 11 11 11 12 12 11 9 8 6 5 6 7 6 6 6 6 6 7
2 4 4 5 7 7 6 4 1 4 9 7 3 -0 0 14 15 -3 -0 17 14 7 8 9 8 9 7 6 9 9 1 -1 2 1 0 1 0 4 7 4 4 6 4 1 2 2 1 2 2 1 -1 1 4 4 4 8 13 17 17 14 9 6 4 5 12 18 20 18 16 14 13 14 19 24 22 16 12 11 12 12 12 12 12 11 11 10 9 8 7 6 6 6 7 6 6 7 7
3 3 4 4 6 8 6 5 1 3 9 6 5 2 -3 12 19 2 4 16 9 3 7 11 11 9 7 6 8 5 0 3 5 3 2 2 0 0 5 7 5 7 8 4 1 2 3 3 2 3 1 -0 1 4 5 2 4 10 13 14 12 10 7 4 4 8 14 18 19 18 17 14 13 16 21 22 16 11 11 13 14 13 13 11 9 9 9 8 8 7 7 6 6 7 7 7 7
4 2 4 3 4 8 6 5 3 4 7 6 6 2 -5 9 17 5 7 11 5 6 9 10 11 7 5 6 6 5 4 5 7 7 5 2 3 2 3 7 6 6 10 9 4 1 2 3 1 2 2 2 1 2 5 5 4 6 8 11 11 10 9 7 4 3 6 10 14 17 19 19 17 14 14 19 20 16 10 10 13 13 13 12 10 10 9 8 8 7 8 7 7 7 6 6 7
4 3 3 3 4 6 6 7 6 5 6 4 5 3 -0 11 14 5 8 7 3 8 8 6 7 6 8 10 8 6 6 6 6 5 3 3 5 6 5 7 7 7 8 10 9 2 -0 2 2 1 1 3 4 2 3 4 5 5 5 8 9 9 9 8 6 4 3 5 7 12 16 17 20 19 16 15 17 19 14 9 9 11 11 10 10 9 8 8 8 8 8 7 7 6 5 5 4
5 4 3 3 3 4 5 8 8 6 5 6 6 3 -1 6 6 3 9 6 -1 3 4 3 5 8 11 8 5 5 5 6 5 2 1 2 3 6 10 12 14 14 11 11 13 7 1 0 1 2 2 1 3 4 3 2 3 5 5 7 8 9 8 7 7 6 4 4 5 7 11 14 16 18 19 17 16 17 17 13 8 8 9 9 8 8 8 8 8 8 8 7 8 8 8 9 8
6 5 3 2 2 4 6 6 7 7 6 7 6 1 -1 3 4 5 11 5 -2 3 4 2 5 9 9 5 3 4 3 3 3 3 2 2 3 5 8 13 18 20 16 10 11 10 6 2 0 1 2 2 1 3 5 4 3 4 6 7 9 11 10 8 7 7 5 5 5 7 9 12 14 14 17 19 18 16 16 16 13 9 8 7 7 7 7 8 8 9 10 9 9 8 8 7 8
7 4 3 3 3 5 5 5 7 7 8 8 7 5 1 -2 -3 3 8 3 -1 3 2 1 6 6 2 3 6 5 5 3 3 5 4 3 5 6 4 7 13 17 15 10 9 11 9 6 3 0 1 3 1 -0 4 6 5 5 7 8 9 11 12 12 9 7 6 5 6 8 9 12 15 13 13 15 18 18 15 15 16 15 13 11 10 8 6 6 5 5 5 6 5 4 6 6 5
6 5 5 5 4 4 4 4 6 7 9 11 12 9 0 -8 -6 6 14 10 5 1 -1 2 3 -0 -2 1 3 3 2 2 2 4 5 4 6 6 -0 0 7 11 11 10 11 12 10 7 5 2 -0 2 3 -0 1 5 7 6 7 8 8 9 11 13 11 8 6 5 5 8 10 13 16 14 11 11 14 18 18 16 13 13 15 14 14 13 12 12 11 11 12 9 7 5 6 5 3
5 6 7 5 4 4 5 5 6 8 9 9 12 8 1 -1 4 13 15 9 4 0 1 4 3 1 1 1 0 1 1 3 4 5 3 2 6 6 -3 -4 5 10 8 8 11 13 12 8 5 4 2 0 2 2 0 2 7 7 7 7 6 7 9 12 13 10 8 5 4 7 10 13 17 16 12 10 11 13 17 20 16 11 10 11 14 13 10 9 7 8 11 9 8 10 11 11 10
6 6 5 4 4 3 5 5 6 9 8 8 11 7 3 4 2 3 0 -6 -2 5 4 4 4 3 2 -0 0 3 4 7 9 9 9 8 8 6 -2 -3 4 8 8 8 8 12 14 12 7 4 4 3 1 2 1 1 5 6 5 6 6 6 8 10 13 12 11 9 7 6 9 12 17 19 14 10 11 10 10 15 18 16 11 8 11 11 8 7 5 2 2 3 4 4 2 4 6
7 6 5 4 3 3 4 4 5 10 8 8 11 5 4 6 0 -2 -2 -5 2 6 2 -1 -0 -1 -1 0 3 5 7 9 9 10 13 16 14 7 -0 -1 3 4 6 7 7 7 9 13 12 5 5 6 3 2 2 1 2 4 4 5 6 7 8 9 13 13 11 12 11 9 8 11 15 20 18 10 10 13 10 9 11 14 15 11 9 10 10 12 14 13 10 8 10 10 6 2 0
6 5 3 3 4 4 5 4 8 12 9 6 4 0 7 15 6 -5 -7 -2 4 2 -2 1 1 1 3 5 6 6 7 9 10 10 12 17 15 8 2 2 3 4 6 7 7 6 6 10 13 10 7 8 5 3 2 1 0 2 3 3 4 6 9 10 12 15 13 13 14 12 9 11 14 18 20 13 8 13 15 13 10 8 11 12 11 10 10 10 10 11 11 7 8 14 16 17 19
3 3 3 6 7 4 4 6 10 12 8 4 -4 -7 12 25 11 -6 -10 -3 7 4 -1 1 3 4 3 2 4 6 7 8 9 11 15 17 14 9 6 5 6 6 7 8 7 6 7 8 11 13 10 8 7 4 3 2 -0 -1 2 3 2 3 7 11 13 16 15 14 17 16 10 10 13 15 18 17 12 13 16 18 15 11 8 8 10 10 11 14 13 11 11 8 6 10 9 11 17
4 6 6 9 5 1 5 8 13 10 4 5 -5 -14 7 25 14 2 -1 -0 5 5 1 0 3 3 1 1 6 8 7 5 3 8 13 11 7 6 6 7 9 9 9 10 9 7 9 9 9 13 13 9 8 6 4 2 -1 -2 -0 2 3 3 4 8 13 16 15 14 19 18 11 9 12 12 14 17 16 15 17 19 19 17 13 9 8 7 7 11 14 14 13 10 8 11 9 6 10
Height
5857 5856 5856 5855 5854 5853 5851 5851 5849 5848 5849 5849 5849 5848 5848 5847 5847 5847 5845 5844 5843 5842 5842 5841 5840 5840 5840 5839 5839 5838 5838 5838 5838 5838 5838 5837 5837 5836 5835 5835 5835 5835 5835 5835 5835 5835 5835 5834 5834 5835 5834 5834 5834 5834 5833 5833 5832 5832 5831 5831 5831 5830 5829 5829 5828 5828 5828 5827 5827 5827 5827 5827 5827 5827 5826 5826 5826 5825 5825 5825 5825 5825 5824 5824 5823 5823 5822 5822 5822 5822 5822 5822 5822 5823 5823 5823 5823
5855 5855 5854 5853 5852 5851 5850 5849 5848 5847 5847 5847 5846 5846 5846 5845 5844 5844 5842 5841 5840 5840 5840 5838 5837 5837 5836 5837 5837 5836 5835 5835 5834 5835 5835 5835 5834 5833 5832 5832 5832 5833 5832 5832 5832 5832 5832 5832 5832 5832 5832 5832 5832 5831 5831 5830 5830 5829 5829 5829 5828 5828 5827 5827 5826 5826 5825 5825 5825 5825 5825 5825 5825 5825 5825 5824 5824 5824 5823 5823 5823 5823 5822 5822 5821 5821 5821 5820 5820 5820 5820 5820 5820 5821 5821 5821 5821
5854 5853 5852 5851 5850 5850 5849 5848 5846 5846 5846 5844 5844 5844 5843 5842 5841 5840 5839 5838 5838 5838 5838 5836 5835 5834 5833 5834 5834 5833 5833 5832 5831 5832 5832 5832 5832 5831 5830 5830 5830 5830 5830 5830 5830 5830 5830 5830 5830 5830 5830 5830 5829 5829 5829 5828 5828 5827 5827 5826 5826 5826 5825 5825 5824 5824 5823 5823 5822 5822 5822 5823 5823 5823 5823 5822 5822 5822 5821 5821 5821 5821 5820 5820 5819 5819 5819 5819 5819 5819 5819 5819 5819 5819 5819 5819 5819
5853 5851 5851 5850 5849 5848 5847 5846 5844 5844 5844 5842 5842 5841 5840 5839 5838 5837 5837 5836 5836 5836 5835 5834 5833 5831 5831 5832 5832 5830 5830 5830 5829 5829 5829 5830 5830 5829 5829 5829 5828 5828 5828 5828 5828 5828 5828 5828 5828 5827 5827 5827 5827 5826 5826 5826 5825 5825 5824 5824 5823 5823 5823 5822 5822 5821 5821 5820 5820 5820 5820 5820 5820 5820 5820 5820 5820 5820 5819 5819 5819 5819 5819 5818 5818 5818 5818 5818 5817 5817 5817 5817 5817 5817 5817 5817 5817
5850 5849 5849 5848 5847 5846 5845 5844 5843 5843 5842 5841 5839 5838 5837 5837 5836 5835 5835 5834 5834 5833 5833 5832 5832 5830 5829 5829 5830 5829 5828 5828 5828 5828 5828 5828 5829 5829 5828 5827 5827 5826 5826 5826 5826 5826 5826 5825 5825 5825 5824 5824 5824 5824 5824 5823 5823 5822 5822 5821 5820 5820 5820 5819 5819 5819 5818 5818 5817 5817 5817 5817 5817 5817 5818 5818 5818 5818 5817 5817 5817 5817 5817 5817 5816 5816 5816 5816 5816 5815 5815 5815 5815 5815 5815 5815 5815
5847 5846 5846 5845 5844 5843 5842 5841 5840 5840 5839 5838 5836 5835 5835 5834 5834 5833 5833 5832 5832 5831 5831 5830 5830 5829 5827 5827 5827 5827 5827 5826 5826 5826 5826 5827 5827 5827 5826 5826 5825 5825 5824 5823 5823 5823 5823 5822 5822 5822 5822 5822 5821 5821 5821 5821 5820 5820 5819 5819 5818 5817 5817 5817 5816 5816 5816 5815 5815 5815 5814 5814 5814 5814 5815 5815 5815 5815 5815 5815 5815 5815 5815 5814 5814 5814 5815 5815 5814 5814 5814 5813 5813 5813 5813 5813 5813
5844 5843 5843 5842 5842 5841 5839 5838 5837 5836 5835 5834 5833 5832 5832 5832 5831 5832 5831 5831 5830 5830 5829 5829 5828 5828 5826 5825 5825 5825 5825 5825 5824 5824 5824 5824 5825 5825 5824 5823 5822 5822 5821 5820 5820 5820 5820 5820 5820 5819 5819 5819 5819 5818 5818 5818 5817 5817 5816 5816 5815 5815 5815 5814 5814 5813 5813 5812 5812 5812 5812 5812 5811 5811 5812 5812 5812 5812 5812 5812 5812 5812 5812 5812 5812 5812 5813 5813 5812 5812 5812 5812 5811 5811 5811 5811 5811
5841 5841 5840 5839 5839 5838 5836 5834 5833 5832 5831 5830 5830 5830 5830 5830 5830 5830 5829 5829 5829 5828 5827 5827 5827 5826 5825 5824 5823 5823 5823 5822 5822 5822 5821 5821 5821 5822 5821 5820 5819 5818 5817 5817 5817 5817 5817 5816 5816 5816 5815 5815 5815 5815 5815 5815 5814 5814 5813 5813 5812 5812 5812 5812 5811 5811 5810 5810 5809 5809 5809 5809 5809 5809 5809 5809 5809 5809 5809 5810 5810 5810 5809 5809 5810 5810 5811 5811 5810 5810 5810 5810 5809 5809 5809 5809 5809
5839 5838 5837 5837 5836 5835 5833 5831 5829 5828 5828 5828 5828 5828 5828 5827 5827 5827 5827 5827 5826 5826 5826 5825 5825 5824 5823 5823 5821 5821 5821 5820 5820 5819 5818 5818 5817 5818 5818 5817 5816 5815 5814 5814 5813 5813 5812 5812 5812 5812 5812 5812 5811 5811 5811 5811 5811 5811 5810 5810 5809 5809 5809 5809 5808 5808 5807 5807 5806 5806 5806 5806 5805 5806 5806 5806 5806 5806 5806 5807 5807 5807 5806 5806 5807 5808 5808 5808 5808 5808 5807 5808 5807 5807 5807 5807 5807
5836 5835 5834 5834 5833 5832 5831 5828 5825 5825 5826 5826 5826 5826 5825 5825 5824 5824 5824 5825 5824 5824 5823 5823 5822 5822 5821 5821 5819 5818 5817 5816 5816 5815 5814 5814 5814 5814 5814 5814 5813 5812 5811 5810 5809 5809 5808 5808 5808 5807 5807 5808 5808 5808 5807 5807 5807 5807 5807 5807 5806 5806 5806 5806 5805 5805 5805 5804 5804 5803 5803 5803 5802 5802 5803 5803 5803 5803 5803 5804 5804 5804 5804 5804 5804 5805 5805 5806 5806 5805 5805 5805 5805 5805 5805 5805 5805
5833 5832 5831 5831 5830 5830 5829 5826 5823 5824 5825 5824 5824 5824 5823 5822 5822 5822 5822 5822 5822 5821 5821 5820 5819 5819 5819 5818 5817 5815 5815 5814 5813 5812 5811 5811 5810 5810 5810 5810 5810 5809 5808 5807 5806 5805 5805 5804 5804 5804 5803 5803 5804 5804 5804 5804 5804 5804 5804 5804 5803 5803 5803 5802 5802 5802 5802 5801 5801 5800 5800 5800 5799 5799 5799 5800 5800 5800 5800 5801 5801 5801 5801 5801 5802 5802 5803 5803 5803 5803 5803 5803 5803 5803 5803 5803 5803
5831 5829 5829 5828 5828 5827 5826 5825 5821 5822 5823 5822 5821 5821 5821 5820 5820 5820 5820 5819 5819 5818 5818 5817 5816 5816 5816 5815 5814 5812 5812 5811 5810 5809 5809 5808 5806 5806 5806 5806 5806 5805 5804 5803 5802 5802 5801 5801 5800 5800 5800 5800 5800 5800 5800 5800 5800 5800 5800 5800 5800 5799 5799 5799 5799 5798 5798 5798 5798 5797 5797 5797 5796 5796 5796 5797 5797 5797 5797 5798 5798 5798 5798 5798 5799 5799 5799 5800 5800 5801 5800 5800 5800 5801 5801 5801 5801
5829 5827 5827 5826 5825 5824 5823 5823 5820 5820 5822 5821 5819 5819 5818 5818 5818 5818 5818 5817 5816 5816 5815 5814 5814 5813 5813 5812 5810 5809 5808 5808 5807 5806 5805 5805 5803 5802 5801 5801 5801 5801 5800 5799 5799 5798 5798 5797 5796 5796 5796 5796 5796 5796 5796 5796 5796 5795 5795 5795 5795 5795 5795 5795 5795 5795 5795 5795 5794 5794 5794 5794 5794 5794 5794 5794 5794 5794 5794 5795 5795 5796 5796 5796 5796 5796 5796 5797 5798 5798 5798 5798 5798 5798 5798 5798 5798
5827 5825 5824 5823 5822 5822 5821 5820 5819 5819 5820 5819 5818 5817 5817 5817 5816 5816 5816 5815 5814 5813 5812 5811 5810 5810 5809 5809 5807 5806 5805 5804 5803 5802 5801 5800 5799 5798 5798 5797 5796 5795 5795 5795 5794 5794 5793 5793 5792 5792 5792 5792 5792 5792 5792 5792 5791 5791 5791 5791 5791 5791 5791 5791 5791 5791 5791 5791 5791 5791 5791 5791 5791 5791 5791 5791 5791 5791 5791 5792 5792 5792 5793 5793 5793 5793 5794 5794 5794 5795 5795 5795 5795 5795 5795 5795 5795
5825 5823 5822 5821 5820 5820 5819 5818 5817 5818 5817 5816 5816 5816 5816 5815 5815 5814 5813 5814 5812 5810 5810 5808 5807 5806 5805 5804 5803 5802 5801 5800 5799 5798 5796 5795 5794 5794 5793 5792 5791 5790 5790 5789 5789 5788 5788 5788 5788 5787 5787 5787 5787 5787 5787 5787 5787 5787 5787 5786 5787 5787 5787 5787 5787 5787 5787 5787 5787 5787 5787 5787 5787 5787 5788 5788 5788 5788 5788 5788 5789 5790 5790 5790 5790 5790 5790 5790 5791 5791 5791 5791 5792 5792 5792 5792 5793
5822 5821 5820 5819 5818 5818 5817 5816 5815 5816 5815 5814 5814 5814 5813 5812 5812 5812 5810 5811 5809 5807 5807 5805 5803 5802 5801 5800 5799 5797 5797 5795 5794 5793 5792 5790 5789 5788 5787 5787 5786 5785 5784 5784 5783 5783 5783 5783 5783 5782 5782 5782 5782 5782 5782 5783 5783 5782 5782 5782 5782 5782 5782 5782 5783 5783 5783 5783 5783 5783 5783 5784 5784 5784 5784 5785 5785 5784 5785 5785 5786 5787 5787 5787 5787 5787 5787 5787 5787 5788 5788 5788 5788 5788 5789 5789 5790
5820 5819 5818 5817 5817 5816 5816 5815 5814 5814 5813 5812 5812 5812 5811 5809 5809 5809 5807 5807 5806 5804 5803 5801 5800 5799 5797 5796 5794 5793 5792 5791 5789 5789 5787 5786 5784 5783 5782 5781 5781 5779 5778 5777 5777 5777 5777 5777 5778 5778 5777 5777 5777 5777 5778 5778 5778 5778 5777 5777 5777 5777 5777 5778 5778 5779 5779 5779 5779 5780 5780 5780 5780 5781 5781 5781 5781 5781 5781 5782 5783 5783 5783 5783 5783 5784 5784 5784 5784 5784 5784 5784 5785 5785 5786 5786 5787
5818 5817 5816 5816 5815 5815 5815 5814 5813 5813 5812 5811 5811 5810 5809 5808 5808 5807 5805 5804 5803 5802 5800 5799 5798 5796 5795 5793 5791 5790 5788 5786 5785 5784 5782 5780 5779 5778 5777 5776 5775 5775 5773 5772 5772 5772 5772 5772 5772 5773 5773 5772 5772 5772 5773 5773 5773 5773 5773 5773 5773 5773 5773 5773 5774 5774 5775 5775 5775 5776 5776 5776 5776 5777 5777 5777 5777 5777 5778 5778 5779 5779 5779 5780 5780 5780 5781 5781 5780 5780 5781 5781 5781 5782 5783 5783 5784
5816 5815 5814 5814 5814 5814 5813 5813 5812 5811 5811 5810 5810 5809 5808 5807 5806 5805 5804 5802 5802 5801 5799 5798 5796 5794 5792 5790 5788 5786 5783 5781 5779 5778 5777 5776 5774 5773 5772 5770 5770 5769 5769 5768 5767 5766 5766 5766 5767 5767 5767 5767 5768 5767 5768 5768 5769 5769 5768 5768 5768 5769 5769 5769 5769 5770 5770 5771 5771 5772 5772 5772 5772 5773 5773 5773 5773 5774 5774 5774 5775 5775 5775 5776 5776 5776 5777 5777 5777 5777 5777 5777 5778 5778 5779 5779 5780
5815 5813 5812 5812 5812 5812 5812 5811 5811 5810 5809 5809 5808 5807 5806 5805 5804 5803 5802 5800 5799 5798 5797 5795 5793 5791 5789 5787 5784 5782 5779 5776 5773 5772 5771 5769 5768 5767 5766 5765 5764 5763 5763 5763 5762 5761 5760 5761 5761 5762 5762 5762 5763 5763 5763 5763 5763 5764 5764 5764 5764 5764 5765 5765 5765 5766 5766 5767 5767 5768 5768 5769 5769 5769 5769 5769 5769 5770 5771 5771 5771 5771 5771 5772 5772 5772 5772 5773 5773 5773 5774 5774 5774 5774 5775 5776 5776
5813 5812 5811 5810 5810 5810 5809 5809 5808 5807 5807 5807 5806 5805 5803 5803 5802 5801 5800 5798 5797 5795 5794 5792 5791 5789 5787 5785 5782 5780 5777 5773 5769 5767 5765 5763 5762 5761 5760 5759 5758 5757 5757 5757 5757 5756 5755 5756 5756 5756 5757 5757 5758 5758 5758 5758 5758 5759 5759 5758 5759 5760 5761 5761 5762 5762 5762 5762 5763 5764 5764 5765 5765 5765 5765 5765 5766 5766 5767 5767 5767 5767 5767 5768 5768 5768 5768 5768 5769 5769 5770 5770 5770 5771 5771 5772 5772
5811 5811 5810 5809 5809 5809 5808 5807 5806 5805 5805 5805 5804 5803 5801 5801 5800 5799 5798 5797 5796 5794 5792 5790 5788 5787 5785 5783 5780 5778 5774 5771 5767 5764 5761 5759 5758 5756 5755 5754 5753 5752 5752 5751 5751 5750 5750 5750 5751 5751 5751 5751 5752 5753 5753 5753 5754 5754 5754 5753 5754 5755 5756 5756 5757 5757 5758 5758 5759 5759 5760 5760 5761 5761 5761 5761 5762 5762 5763 5763 5763 5763 5763 5763 5764 5764 5764 5764 5764 5765 5765 5766 5766 5767 5767 5768 5768
5810 5809 5809 5808 5808 5808 5807 5806 5805 5804 5804 5803 5802 5802 5800 5799 5798 5797 5796 5795 5794 5792 5790 5788 5786 5784 5782 5780 5777 5774 5771 5767 5763 5760 5758 5756 5755 5753 5752 5750 5749 5748 5748 5747 5745 5744 5744 5744 5744 5745 5745 5746 5746 5747 5749 5749 5749 5749 5749 5749 5749 5749 5750 5751 5751 5752 5753 5753 5754 5755 5755 5756 5756 5757 5757 5757 5758 5758 5758 5759 5759 5759 5759 5759 5759 5759 5759 5760 5760 5760 5761 5761 5761 5762 5762 5763 5763
5809 5808 5807 5807 5807 5807 5806 5806 5804 5803 5803 5801 5801 5801 5799 5798 5797 5796 5794 5793 5792 5790 5788 5786 5784 5781 5779 5776 5773 5770 5767 5763 5760 5758 5756 5754 5752 5751 5749 5748 5746 5745 5744 5743 5741 5739 5738 5737 5738 5739 5740 5740 5741 5741 5743 5743 5744 5744 5744 5744 5744 5743 5744 5745 5745 5746 5747 5748 5749 5750 5751 5751 5752 5752 5753 5753 5754 5754 5754 5754 5755 5755 5755 5755 5755 5755 5755 5756 5756 5756 5756 5757 5757 5757 5758 5758 5759
5808 5806 5806 5806 5806 5806 5805 5804 5803 5801 5801 5800 5799 5799 5798 5797 5796 5794 5793 5791 5790 5788 5786 5784 5781 5778 5776 5773 5770 5767 5764 5761 5758 5756 5754 5752 5750 5748 5746 5744 5743 5741 5740 5738 5737 5735 5733 5732 5731 5732 5733 5734 5735 5736 5737 5737 5738 5739 5739 5739 5739 5739 5739 5739 5740 5741 5742 5742 5743 5744 5745 5746 5747 5748 5748 5749 5749 5749 5749 5750 5750 5750 5751 5751 5751 5751 5752 5752 5752 5752 5752 5752 5753 5753 5754 5754 5754
5806 5805 5805 5805 5805 5804 5803 5803 5801 5799 5799 5798 5797 5797 5796 5796 5794 5792 5791 5789 5788 5786 5784 5781 5779 5776 5774 5771 5768 5765 5762 5759 5757 5754 5752 5749 5747 5744 5743 5741 5739 5737 5736 5734 5733 5731 5729 5728 5726 5726 5727 5728 5729 5730 5731 5732 5733 5734 5734 5734 5735 5735 5735 5735 5735 5736 5737 5737 5738 5739 5740 5741 5741 5742 5743 5744 5744 5744 5745 5745 5745 5745 5746 5747 5747 5748 5748 5748 5748 5748 5748 5749 5749 5749 5750 5750 5750
5805 5804 5803 5803 5803 5802 5802 5801 5800 5798 5797 5796 5795 5796 5795 5794 5793 5791 5789 5788 5786 5784 5782 5780 5777 5775 5772 5769 5766 5763 5760 5758 5756 5753 5750 5747 5745 5742 5740 5737 5735 5733 5731 5730 5728 5726 5725 5724 5722 5720 5721 5721 5722 5724 5725 5726 5727 5728 5729 5729 5730 5730 5730 5731 5731 5732 5732 5732 5732 5733 5735 5736 5736 5737 5738 5739 5740 5740 5740 5740 5740 5741 5742 5742 5743 5743 5744 5744 5744 5744 5744 5744 5745 5745 5745 5746 5746
5803 5802 5801 5801 5800 5800 5799 5799 5798 5797 5795 5795 5794 5793 5793 5792 5791 5789 5788 5787 5785 5783 5781 5778 5776 5774 5771 5768 5766 5763 5760 5757 5755 5752 5749 5746 5744 5741 5738 5735 5733 5730 5728 5726 5724 5722 5721 5719 5718 5716 5715 5715 5716 5717 5718 5720 5721 5722 5723 5724 5725 5724 5725 5726 5727 5727 5727 5727 5728 5729 5730 5731 5731 5732 5733 5734 5735 5735 5736 5736 5736 5736 5737 5738 5738 5739 5740 5740 5740 5740 5740 5740 5741 5741 5741 5741 5742
5801 5800 5799 5799 5798 5798 5796 5796 5796 5795 5794 5793 5792 5791 5791 5790 5789 5787 5786 5785 5783 5781 5780 5777 5775 5773 5771 5768 5766 5763 5760 5757 5754 5751 5748 5745 5742 5739 5737 5734 5731 5729 5726 5724 5721 5719 5718 5716 5714 5712 5711 5710 5710 5711 5712 5713 5715 5716 5717 5718 5719 5720 5720 5721 5722 5722 5722 5722 5722 5723 5724 5725 5726 5726 5727 5729 5730 5731 5732 5732 5732 5732 5732 5733 5734 5735 5736 5736 5736 5736 5736 5736 5736 5737 5737 5737 5738
5799 5798 5797 5797 5796 5795 5794 5793 5794 5793 5791 5791 5790 5788 5788 5787 5786 5785 5784 5783 5781 5780 5778 5776 5774 5772 5770 5768 5765 5762 5759 5756 5753 5750 5747 5744 5741 5738 5735 5732 5729 5727 5724 5722 5719 5717 5715 5713 5711 5709 5707 5706 5705 5705 5706 5707 5708 5710 5711 5712 5713 5714 5715 5716 5717 5717 5717 5717 5717 5718 5719 5720 5721 5721 5722 5724 5725 5726 5727 5727 5727 5727 5728 5729 5730 5730 5731 5732 5732 5732 5732 5732 5732 5733 5733 5733 5734
5797 5796 5795 5794 5793 5792 5791 5790 5791 5791 5789 5788 5788 5786 5785 5785 5784 5783 5782 5781 5780 5778 5777 5775 5773 5771 5769 5767 5765 5762 5759 5756 5752 5749 5746 5743 5739 5736 5734 5731 5728 5725 5723 5720 5718 5716 5713 5711 5709 5707 5705 5703 5701 5701 5701 5701 5702 5703 5704 5705 5706 5708 5710 5711 5712 5712 5712 5712 5712 5713 5713 5714 5715 5716 5717 5719 5720 5721 5721 5722 5722 5723 5724 5725 5726 5726 5727 5727 5727 5727 5727 5728 5728 5728 5728 5729 5730
5794 5794 5793 5792 5791 5790 5788 5787 5788 5788 5787 5785 5785 5784 5783 5782 5782 5781 5780 5779 5777 5776 5774 5773 5771 5769 5767 5766 5763 5760 5758 5755 5751 5748 5745 5742 5739 5736 5733 5730 5727 5724 5721 5718 5716 5714 5712 5710 5708 5705 5703 5701 5699 5697 5697 5696 5697 5697 5698 5699 5700 5702 5704 5705 5706 5706 5706 5707 5707 5707 5708 5709 5710 5711 5712 5713 5715 5716 5716 5716 5717 5718 5719 5720 5721 5722 5722 5722 5722 5722 5723 5723 5724 5724 5724 5724 5725
5791 5791 5791 5790 5789 5787 5785 5784 5785 5785 5784 5782 5782 5782 5781 5779 5779 5778 5777 5776 5775 5773 5772 5770 5769 5767 5765 5764 5762 5759 5757 5754 5751 5747 5744 5741 5739 5736 5732 5729 5726 5723 5720 5717 5714 5712 5709 5708 5706 5704 5702 5700 5698 5696 5694 5693 5692 5692 5693 5694 5695 5696 5697 5699 5700 5701 5701 5701 5701 5702 5703 5704 5705 5706 5707 5708 5709 5710 5711 5711 5712 5713 5714 5715 5716 5717 5717 5717 5717 5717 5718 5718 5719 5719 5719 5720 5720
5790 5789 5789 5788 5787 5785 5783 5782 5782 5782 5781 5779 5779 5779 5778 5777 5776 5775 5775 5773 5772 5771 5769 5768 5766 5765 5763 5762 5760 5758 5756 5753 5750 5747 5744 5741 5738 5735 5731 5728 5725 5722 5718 5715 5713 5710 5708 5706 5704 5702 5700 5698 5696 5695 5693 5691 5690 5689 5688 5689 5690 5691 5692 5693 5694 5695 5696 5696 5696 5696 5697 5699 5700 5702 5702 5703 5704 5705 5706 5706 5707 5707 5709 5710 5711 5712 5712 5712 5712 5712 5713 5714 5714 5714 5715 5715 5716
5788 5787 5786 5786 5785 5783 5780 5779 5780 5779 5777 5776 5775 5775 5775 5774 5774 5773 5772 5771 5769 5768 5767 5765 5764 5763 5761 5760 5758 5757 5755 5752 5749 5746 5743 5740 5737 5734 5730 5727 5724 5721 5717 5714 5711 5709 5706 5704 5702 5700 5698 5696 5694 5693 5691 5689 5688 5686 5685 5685 5685 5686 5687 5688 5688 5690 5690 5690 5690 5691 5692 5694 5696 5697 5698 5698 5699 5700 5700 5701 5702 5702 5703 5704 5706 5707 5707 5707 5707 5707 5708 5709 5709 5710 5710 5710 5711
5785 5784 5783 5783 5782 5780 5778 5777 5777 5775 5774 5773 5771 5771 5772 5771 5771 5770 5769 5768 5767 5765 5764 5763 5761 5760 5759 5758 5756 5755 5753 5750 5747 5745 5742 5739 5736 5733 5730 5726 5723 5720 5716 5713 5710 5707 5705 5702 5700 5698 5695 5694 5692 5690 5689 5687 5686 5684 5683 5682 5681 5682 5683 5683 5684 5685 5685 5685 5685 5686 5687 5689 5691 5692 5693 5693 5694 5695 5695 5696 5696 5697 5698 5699 5700 5701 5702 5702 5702 5703 5703 5704 5704 5705 5705 5706 5706
5783 5782 5781 5780 5779 5778 5776 5775 5774 5772 5771 5770 5769 5768 5768 5768 5768 5768 5766 5765 5763 5762 5761 5760 5758 5757 5757 5756 5754 5753 5751 5749 5746 5743 5740 5737 5735 5732 5729 5725 5722 5718 5715 5712 5709 5706 5704 5701 5699 5696 5694 5692 5690 5688 5686 5684 5683 5682 5680 5679 5678 5678 5678 5679 5679 5680 5680 5680 5680 5681 5682 5684 5686 5687 5688 5688 5689 5689 5690 5690 5691 5691 5693 5694 5694 5695 5696 5697 5697 5698 5698 5699 5699 5700 5700 5701 5701
5780 5779 5779 5778 5777 5776 5774 5772 5771 5770 5769 5768 5766 5765 5765 5764 5765 5764 5763 5762 5760 5759 5758 5757 5755 5754 5754 5753 5752 5750 5749 5747 5744 5741 5739 5736 5733 5730 5727 5724 5721 5718 5714 5711 5708 5705 5702 5700 5697 5695 5692 5690 5688 5686 5684 5682 5680 5679 5678 5677 5676 5675 5675 5675 5675 5675 5675 5675 5676 5676 5677 5679 5680 5682 5683 5683 5683 5684 5684 5684 5685 5686 5687 5688 5689 5689 5690 5691 5692 5693 5693 5693 5693 5694 5695 5695 5696
5777 5776 5776 5775 5774 5773 5771 5770 5769 5768 5767 5766 5764 5762 5762 5761 5761 5761 5760 5759 5757 5756 5755 5754 5753 5752 5752 5751 5749 5747 5746 5744 5742 5739 5737 5734 5732 5729 5726 5723 5720 5717 5714 5711 5708 5705 5701 5698 5696 5694 5691 5689 5686 5684 5682 5680 5678 5676 5675 5674 5673 5672 5671 5671 5671 5671 5671 5671 5671 5671 5672 5674 5675 5676 5677 5678 5678 5678 5679 5679 5680 5681 5681 5682 5683 5684 5685 5685 5686 5687 5687 5688 5688 5689 5689 5690 5690
5774 5773 5772 5772 5771 5770 5769 5767 5766 5765 5764 5764 5761 5759 5760 5758 5757 5757 5756 5756 5754 5753 5752 5751 5751 5751 5749 5748 5745 5744 5743 5742 5740 5737 5735 5733 5731 5728 5726 5722 5719 5716 5713 5710 5707 5704 5701 5697 5694 5692 5689 5687 5685 5682 5680 5678 5676 5674 5672 5671 5670 5669 5668 5668 5667 5667 5667 5667 5667 5667 5667 5668 5670 5671 5672 5673 5673 5673 5674 5674 5675 5675 5676 5677 5678 5679 5679 5680 5680 5681 5682 5682 5683 5683 5684 5684 5685
5771 5770 5769 5768 5767 5767 5766 5764 5764 5763 5763 5761 5758 5756 5757 5756 5754 5754 5753 5752 5751 5750 5749 5749 5749 5748 5746 5744 5742 5741 5741 5740 5738 5736 5734 5732 5729 5727 5724 5721 5718 5715 5712 5709 5706 5703 5700 5697 5693 5690 5688 5685 5683 5681 5678 5676 5675 5672 5670 5668 5667 5666 5665 5664 5664 5663 5663 5663 5663 5663 5663 5663 5664 5665 5666 5667 5668 5669 5669 5669 5670 5670 5671 5672 5672 5673 5673 5674 5674 5675 5676 5677 5678 5678 5678 5678 5679
5768 5767 5766 5764 5764 5763 5762 5761 5761 5761 5761 5760 5756 5754 5755 5754 5752 5751 5750 5749 5748 5747 5747 5746 5746 5745 5743 5741 5740 5740 5739 5738 5736 5734 5732 5730 5727 5725 5723 5720 5717 5714 5711 5708 5705 5702 5699 5696 5693 5690 5686 5684 5681 5679 5677 5674 5672 5671 5668 5666 5664 5663 5661 5661 5660 5660 5660 5659 5659 5659 5659 5659 5659 5659 5660 5661 5662 5663 5664 5664 5664 5665 5666 5667 5667 5667 5668 5668 5669 5669 5671 5672 5672 5673 5673 5673 5674
5765 5764 5762 5761 5760 5760 5759 5758 5757 5758 5759 5757 5754 5752 5752 5752 5750 5748 5747 5746 5745 5744 5744 5743 5742 5741 5740 5738 5738 5738 5737 5735 5733 5731 5729 5727 5725 5723 5721 5718 5714 5711 5709 5707 5704 5701 5698 5695 5692 5689 5685 5682 5679 5677 5675 5673 5671 5668 5666 5665 5662 5660 5659 5657 5657 5656 5656 5655 5655 5655 5655 5655 5655 5655 5655 5655 5656 5657 5658 5658 5659 5660 5661 5662 5662 5662 5662 5663 5663 5664 5665 5666 5667 5668 5668 5668 5669
5762 5761 5759 5758 5757 5757 5755 5754 5754 5754 5756 5755 5751 5749 5749 5749 5748 5746 5744 5743 5742 5742 5741 5740 5739 5738 5737 5736 5736 5736 5734 5732 5730 5728 5726 5724 5722 5720 5718 5715 5712 5709 5707 5705 5702 5699 5696 5693 5690 5687 5684 5681 5678 5675 5672 5670 5668 5666 5664 5662 5661 5659 5656 5654 5653 5652 5652 5651 5651 5651 5651 5651 5651 5651 5651 5651 5651 5651 5652 5652 5653 5654 5655 5656 5657 5657 5657 5657 5658 5659 5660 5661 5662 5662 5663 5663 5663
5758 5757 5755 5755 5754 5753 5752 5751 5751 5751 5753 5752 5749 5747 5747 5747 5746 5743 5741 5740 5739 5739 5738 5736 5735 5735 5735 5734 5733 5732 5730 5728 5727 5725 5723 5721 5719 5717 5715 5713 5710 5708 5705 5702 5700 5698 5694 5691 5688 5685 5682 5679 5677 5674 5671 5668 5666 5664 5662 5660 5658 5657 5655 5653 5651 5649 5648 5647 5647 5646 5646 5646 5646 5646 5646 5646 5646 5646 5646 5646 5647 5648 5649 5650 5651 5651 5651 5652 5653 5654 5655 5655 5656 5657 5657 5657 5658
5754 5752 5751 5751 5750 5750 5748 5748 5747 5747 5749 5750 5746 5745 5745 5745 5744 5741 5739 5738 5737 5736 5735 5733 5733 5732 5732 5731 5730 5728 5727 5725 5723 5721 5719 5717 5716 5714 5712 5710 5708 5705 5703 5700 5698 5695 5692 5689 5686 5683 5680 5677 5674 5672 5669 5666 5663 5661 5659 5657 5656 5654 5652 5650 5648 5647 5645 5644 5643 5642 5641 5641 5641 5641 5641 5641 5641 5641 5641 5641 5641 5642 5643 5644 5645 5645 5646 5646 5647 5648 5649 5649 5650 5650 5651 5651 5652
5750 5748 5748 5747 5747 5746 5744 5744 5744 5743 5746 5747 5744 5742 5742 5742 5741 5739 5737 5736 5734 5733 5733 5731 5730 5729 5728 5728 5726 5725 5723 5721 5720 5717 5715 5713 5711 5710 5708 5706 5705 5702 5700 5698 5695 5692 5690 5687 5684 5681 5678 5675 5672 5669 5667 5664 5662 5659 5656 5654 5652 5650 5649 5647 5646 5644 5642 5640 5639 5638 5637 5637 5636 5636 5636 5636 5635 5635 5635 5635 5635 5636 5637 5638 5639 5639 5640 5640 5641 5642 5642 5643 5643 5644 5644 5645 5645
5745 5744 5744 5744 5743 5742 5740 5741 5741 5739 5742 5743 5741 5740 5739 5739 5739 5737 5735 5733 5731 5730 5729 5728 5727 5725 5724 5724 5722 5720 5719 5717 5716 5714 5712 5710 5708 5706 5704 5703 5701 5699 5697 5695 5692 5689 5687 5684 5681 5678 5675 5672 5670 5667 5664 5662 5659 5657 5654 5652 5650 5647 5645 5644 5642 5641 5639 5637 5635 5634 5633 5632 5631 5631 5630 5630 5630 5630 5629 5629 5629 5630 5630 5631 5632 5633 5634 5634 5635 5635 5636 5636 5637 5637 5637 5638 5638
5741 5741 5741 5740 5739 5738 5736 5737 5737 5736 5738 5739 5738 5737 5736 5736 5736 5734 5733 5731 5728 5727 5726 5725 5723 5722 5721 5720 5718 5717 5715 5713 5712 5710 5708 5706 5704 5702 5700 5699 5697 5695 5694 5691 5689 5686 5683 5681 5678 5675 5673 5670 5667 5664 5661 5659 5656 5654 5652 5649 5647 5645 5642 5640 5638 5637 5635 5634 5632 5630 5628 5627 5627 5626 5625 5625 5625 5624 5624 5624 5623 5623 5624 5625 5626 5626 5627 5628 5628 5629 5629 5630 5630 5630 5631 5631 5631
5737 5738 5737 5736 5736 5733 5731 5733 5732 5732 5734 5735 5734 5733 5732 5733 5732 5731 5731 5729 5726 5725 5723 5722 5720 5719 5718 5717 5715 5713 5711 5709 5707 5706 5703 5701 5700 5698 5697 5695 5693 5692 5689 5687 5685 5682 5679 5677 5674 5672 5669 5667 5664 5661 5658 5656 5653 5651 5648 5646 5644 5641 5639 5637 5635 5633 5631 5629 5628 5626 5624 5623 5621 5621 5620 5620 5619 5619 5619 5618 5618 5618 5618 5618 5619 5619 5620 5621 5621 5622 5623 5623 5624 5624 5624 5624 5625
5734 5734 5733 5733 5732 5729 5726 5727 5727 5727 5729 5730 5731 5729 5728 5729 5728 5728 5728 5726 5724 5722 5720 5719 5717 5715 5714 5713 5712 5710 5708 5706 5704 5702 5699 5697 5696 5694 5693 5691 5689 5688 5685 5683 5681 5678 5675 5673 5670 5668 5666 5663 5661 5658 5656 5653 5650 5647 5645 5642 5640 5637 5635 5633 5631 5629 5627 5625 5624 5622 5620 5618 5617 5616 5615 5614 5614 5613 5613 5613 5613 5612 5612 5612 5612 5612 5613 5614 5615 5616 5616 5617 5617 5618 5618 5618 5618
5729 5729 5729 5729 5728 5724 5722 5722 5723 5723 5722 5724 5726 5724 5725 5725 5724 5725 5725 5722 5721 5719 5716 5716 5714 5712 5711 5709 5708 5706 5704 5701 5700 5698 5695 5693 5691 5690 5689 5687 5685 5683 5681 5679 5677 5674 5671 5668 5666 5663 5662 5660 5657 5655 5652 5650 5647 5644 5641 5639 5636 5633 5631 5629 5627 5625 5623 5621 5620 5618 5616 5614 5612 5611 5610 5609 5608 5608 5607 5607 5607 5607 5606 5606 5606 5606 5606 5607 5608 5609 5610 5611 5611 5612 5612 5612 5612
5725 5725 5726 5725 5723 5720 5719 5718 5719 5718 5715 5717 5720 5720 5721 5721 5720 5722 5722 5720 5719 5716 5713 5712 5711 5709 5708 5706 5705 5702 5700 5697 5695 5694 5691 5689 5687 5685 5684 5683 5681 5678 5676 5674 5672 5670 5668 5664 5661 5659 5657 5656 5654 5651 5649 5646 5643 5640 5638 5635 5632 5629 5627 5624 5622 5620 5618 5617 5615 5613 5612 5610 5607 5606 5604 5603 5603 5602 5602 5601 5601 5601 5600 5600 5600 5601 5601 5601 5602 5602 5603 5604 5605 5605 5606 5606 5606
5721 5721 5721 5720 5717 5715 5715 5715 5715 5714 5709 5709 5713 5715 5714 5716 5717 5718 5718 5717 5715 5712 5709 5707 5706 5705 5703 5702 5700 5698 5695 5693 5691 5689 5687 5684 5682 5681 5680 5678 5676 5674 5671 5669 5667 5665 5663 5660 5657 5654 5653 5652 5649 5647 5645 5642 5639 5636 5633 5630 5627 5625 5622 5620 5617 5615 5613 5612 5610 5609 5607 5605 5603 5601 5599 5598 5597 5596 5596 5595 5595 5594 5594 5594 5595 5595 5595 5596 5596 5596 5597 5597 5598 5598 5599 5599 5599
5717 5716 5715 5714 5712 5711 5712 5712 5711 5710 5705 5702 5704 5708 5708 5711 5714 5714 5714 5714 5711 5707 5705 5702 5701 5699 5697 5696 5695 5693 5690 5688 5686 5685 5683 5680 5678 5677 5675 5673 5671 5668 5666 5664 5662 5660 5658 5656 5653 5649 5648 5647 5645 5642 5640 5637 5634 5631 5628 5625 5623 5620 5617 5615 5612 5610 5608 5607 5605 5603 5602 5600 5598 5595 5594 5593 5592 5591 5590 5589 5588 5588 5587 5588 5588 5588 5589 5589 5590 5590 5590 5591 5592 5592 5592 5592 5593
5712 5710 5709 5709 5708 5707 5708 5709 5708 5706 5702 5698 5695 5696 5700 5707 5710 5709 5709 5709 5706 5703 5700 5697 5696 5695 5692 5691 5690 5689 5686 5684 5682 5681 5679 5676 5674 5672 5670 5667 5665 5662 5660 5658 5657 5655 5653 5651 5648 5644 5642 5641 5639 5637 5635 5632 5630 5627 5624 5621 5618 5615 5612 5609 5607 5605 5603 5601 5600 5598 5596 5594 5592 5590 5588 5587 5586 5585 5584 5583 5582 5582 5581 5581 5581 5582 5582 5583 5583 5583 5583 5584 5584 5585 5585 5586 5586
5705 5704 5704 5705 5705 5704 5703 5705 5707 5704 5698 5694 5690 5687 5690 5701 5706 5704 5704 5703 5700 5699 5695 5693 5693 5692 5689 5688 5685 5684 5681 5679 5679 5677 5675 5672 5669 5667 5664 5661 5658 5656 5654 5652 5651 5650 5648 5646 5643 5639 5637 5636 5634 5632 5629 5627 5625 5622 5619 5616 5613 5610 5607 5604 5602 5599 5598 5596 5594 5592 5591 5589 5587 5585 5583 5581 5580 5579 5578 5577 5576 5575 5575 5574 5574 5574 5575 5575 5576 5577 5577 5577 5577 5578 5578 5579 5580
5699 5699 5700 5701 5701 5700 5700 5701 5703 5701 5693 5688 5688 5684 5681 5692 5701 5700 5699 5698 5695 5694 5691 5689 5689 5687 5685 5683 5681 5678 5675 5673 5672 5671 5669 5666 5664 5661 5658 5655 5653 5651 5648 5646 5645 5644 5642 5640 5637 5634 5632 5630 5629 5626 5624 5622 5619 5616 5614 5611 5608 5605 5602 5599 5596 5594 5592 5589 5588 5586 5584 5583 5581 5579 5577 5575 5574 5573 5571 5570 5569 5568 5568 5568 5568 5567 5567 5568 5569 5569 5570 5570 5571 5571 5572 5572 5573